[[{"header":{"parameterUnit":"m.s-1","parameterCategory":2,"la1":30.2991,"la2":30.254,"lo1":-89.0895,"lo2":-89.0444,"dy":0.0017,"dx":0.0017,"nx":28,"ny":28,"refTime":"2024-10-21T09:00:00:Z","depth":"0","parameterNumber":2,"parameterNumberName":"U-component_of_CURRENTS"},"data":[0,0,0,0,0,0,0,0,0,0,0,0,0,0,0,0,0,0,0,0,0,0,0,0,0,0,0,0,0,0,0,0,0,0,0,0,0,0,0,0,0,0,0,0,0,0,0,0,0,0,0,0,0,0,0,0,0,0,-0.1755,-0.1756,0,-0.1877,-0.1878,-0.1879,-0.1901,-0.19,-0.1899,-0.1898,-0.1912,-0.1913,-0.1915,0,0,0,0,0,0,0,0,0,0,0,0,0,-0.1572,-0.1575,-0.1754,-0.1756,-0.1758,-0.1876,-0.1878,-0.1879,-0.1901,-0.19,-0.1899,-0.1898,-0.1912,-0.1913,-0.1915,0,0,0,0,0,0,0,0,0,0,0,0,0,-0.1666,-0.1576,-0.1754,-0.1784,-0.1789,-0.1876,-0.1878,-0.188,-0.1901,-0.19,-0.1899,-0.1898,-0.1911,-0.1913,-0.1915,-0.195,0,0,-0.192,-0.1921,0,0,0,0,0,0,0,0,-0.1661,-0.1673,-0.1778,-0.1783,-0.1787,-0.1874,-0.1819,-0.1899,-0.1902,-0.1856,-0.1898,-0.1897,-0.1892,-0.1895,-0.1919,-0.1951,-0.1951,-0.192,-0.1921,-0.1922,-0.1922,0,0,0,0,0,0,0,-0.1654,-0.1668,-0.1801,-0.178,-0.1786,-0.1803,-0.1815,-0.1835,-0.1876,-0.186,-0.1863,-0.188,-0.1893,-0.1918,-0.1919,-0.1951,-0.192,-0.1922,-0.1923,-0.1923,-0.2009,-0.201,0,0,0,0,0,0,-0.1644,-0.1662,-0.1797,-0.1805,-0.1722,-0.1807,-0.182,-0.1846,-0.1878,-0.1883,-0.1881,-0.188,-0.1915,-0.1918,-0.192,-0.1966,-0.1922,-0.1924,-0.1925,-0.2007,-0.2009,-0.201,0,0,0,0,0,0,-0.1639,-0.1655,-0.1792,-0.1737,-0.1755,-0.1812,-0.184,-0.1849,-0.1872,-0.1895,-0.1898,-0.1895,-0.1915,-0.1917,-0.1949,-0.1965,-0.1924,-0.1926,-0.2006,-0.2008,-0.201,-0.2054,0,0,0,0,0,0,-0.1634,-0.1653,-0.1664,-0.1736,-0.1758,-0.1846,-0.1842,-0.1852,-0.1886,-0.1887,-0.1909,-0.1909,-0.1914,-0.1946,-0.195,-0.1967,-0.1927,-0.2004,-0.2007,-0.2009,-0.2051,-0.2058,-0.2063,0,0,0,0,0,-0.1627,-0.1653,-0.1664,-0.168,-0.1773,-0.1848,-0.1861,-0.1894,-0.1888,-0.1908,-0.1925,-0.1908,-0.1963,-0.1949,-0.1954,-0.1971,-0.2003,-0.2006,-0.2009,-0.2049,-0.2056,-0.2063,0,0,0,0,0,0,-0.1586,-0.166,-0.1673,-0.1721,-0.1779,-0.1852,-0.1874,-0.1897,-0.193,-0.1922,-0.1932,-0.1936,-0.1971,-0.1967,-0.1951,-0.2003,-0.1977,-0.1981,-0.2006,-0.2013,-0.2019,-0.2047,-0.1929,0,0,0,0,0,-0.1581,-0.1614,-0.169,-0.1727,-0.1753,-0.1811,-0.1843,-0.1871,-0.1913,-0.1927,-0.1946,-0.1962,-0.1989,-0.1996,-0.2019,-0.2049,-0.2061,-0.206,-0.2066,-0.2071,-0.2097,-0.2116,-0.2126,-0.2019,-0.2019,-0.2019,0,0,-0.1576,-0.162,-0.164,-0.1719,-0.1761,-0.1817,-0.1827,-0.188,-0.1926,-0.1922,-0.1974,-0.1987,-0.2004,-0.2043,-0.2056,-0.2038,-0.2111,-0.2075,-0.2079,-0.2103,-0.212,-0.213,-0.214,-0.2021,-0.2021,-0.2021,0,0,-0.1584,-0.1621,-0.1649,-0.1701,-0.1769,-0.1816,-0.1831,-0.1906,-0.1934,-0.1991,-0.2,-0.2041,-0.2064,-0.2102,-0.2116,-0.2171,-0.2146,-0.2149,-0.2196,-0.2213,-0.2223,-0.2231,-0.2271,-0.2283,-0.2145,-0.2145,-0.2145,0,-0.1574,-0.1626,-0.1669,-0.1716,-0.1762,-0.1815,-0.1866,-0.1916,-0.1991,-0.2025,-0.2007,-0.2091,-0.2106,-0.2175,-0.2194,-0.2188,-0.2184,-0.2166,-0.2221,-0.2229,-0.2237,-0.2277,-0.2288,-0.2147,-0.2147,-0.2147,-0.2146,0,-0.161,-0.1652,-0.1676,-0.1752,-0.1805,-0.1861,-0.1937,-0.1986,-0.2018,-0.207,-0.214,-0.2174,-0.2223,-0.2228,-0.2229,-0.2291,-0.2268,-0.223,-0.2203,-0.225,-0.2289,-0.2301,-0.2151,-0.215,-0.2149,-0.2149,0,0,-0.1605,-0.1683,-0.1693,-0.1724,-0.1831,-0.1876,-0.196,-0.2057,-0.2111,-0.2169,-0.2236,-0.2304,-0.2316,-0.2337,-0.234,-0.2362,-0.2423,-0.2312,-0.2312,-0.2353,-0.2464,-0.2389,-0.2394,-0.2365,-0.2367,-0.2369,-0.2474,0,-0.1626,-0.1685,-0.1738,-0.1813,-0.1856,-0.1937,-0.2014,-0.2103,-0.2169,-0.2245,-0.23,-0.2357,-0.2356,-0.2368,-0.24,-0.2413,-0.2452,-0.2399,-0.2413,-0.2415,-0.2341,-0.2405,-0.2189,-0.2257,-0.2485,-0.2487,-0.2489,0,-0.166,-0.1692,-0.1748,-0.1838,-0.1866,-0.1919,-0.2042,-0.2119,-0.2246,-0.2294,-0.2371,-0.2406,-0.249,-0.2449,-0.2534,-0.2483,-0.2493,-0.2499,-0.2502,-0.2428,-0.2361,-0.2245,-0.227,-0.2211,-0.2506,-0.2505,-0.2504,0,-0.1627,-0.1712,-0.1743,-0.1778,-0.1886,-0.1926,-0.1992,-0.2125,-0.2198,-0.2316,-0.2366,-0.2465,-0.2499,-0.2536,-0.2581,-0.2541,-0.2651,-0.2593,-0.2554,-0.255,-0.2374,-0.2349,-0.2343,-0.266,-0.266,-0.2659,-0.2659,0,-0.1645,-0.1677,-0.1717,-0.1738,-0.1791,-0.1883,-0.1968,-0.2054,-0.2183,-0.2267,-0.237,-0.2437,-0.2509,-0.2583,-0.261,-0.2634,-0.2682,-0.2596,-0.2575,-0.2384,-0.236,-0.2305,-0.2334,-0.2663,-0.2662,-0.2662,-0.2661,0,-0.1621,-0.165,-0.1685,-0.1753,-0.1773,-0.1808,-0.1931,-0.2006,-0.2124,-0.2231,-0.2265,-0.2418,-0.2509,-0.2604,-0.2678,-0.2656,-0.2634,-0.2692,-0.2481,-0.2433,-0.2292,-0.2332,-0.2399,-0.2335,-0.2651,-0.2649,-0.2648,0,-0.1623,-0.1628,-0.1658,-0.1668,-0.1694,-0.1756,-0.1819,-0.1955,-0.2035,-0.2214,-0.2257,-0.2389,-0.2473,-0.259,-0.2564,-0.2615,-0.2624,-0.2453,-0.2343,-0.2285,-0.2315,-0.2359,-0.2303,-0.2141,-0.2136,-0.2132,-0.2129,0,-0.1614,-0.1604,-0.1608,-0.1615,-0.165,-0.1718,-0.1799,-0.1849,-0.2015,-0.2096,-0.2203,-0.2277,-0.237,-0.2324,-0.2394,-0.2382,-0.2337,-0.2367,-0.2343,-0.1966,-0.1978,-0.1901,-0.2108,-0.2092,-0.2095,-0.2098,-0.21,-0.2102,-0.1592,-0.1564,-0.1545,-0.155,-0.1606,-0.1667,-0.1685,-0.1779,-0.1867,-0.1963,-0.2094,-0.2162,-0.2129,-0.2166,-0.2148,-0.1946,-0.2101,-0.1859,-0.1935,-0.2003,-0.187,-0.2021,-0.1949,-0.1952,-0.1954,-0.1957,-0.1958,0,-0.1566,-0.1506,-0.1495,-0.1496,-0.1539,-0.1591,-0.167,-0.1673,-0.1711,-0.1816,-0.189,-0.1921,-0.183,-0.1792,-0.1579,-0.1507,-0.1463,-0.1514,-0.1491,-0.1469,-0.1596,-0.1492,-0.1269,-0.127,-0.127,-0.127,-0.127,-0.127,-0.1543,-0.1476,-0.1436,-0.1424,-0.1444,-0.1465,-0.1486,-0.1485,-0.153,-0.1536,-0.1577,-0.1667,-0.1571,-0.1557,-0.1336,-0.1265,-0.1266,-0.1249,-0.1377,-0.1405,-0.1441,-0.1476,-0.1379,-0.1138,-0.1138,-0.1091,-0.1091,-0.1091]},{"header":{"parameterUnit":"m.s-1","parameterCategory":2,"la1":30.2991,"la2":30.254,"lo1":-89.0895,"lo2":-89.0444,"dy":0.0017,"dx":0.0017,"nx":28,"ny":28,"refTime":"2024-10-21T09:00:00:Z","depth":"0","parameterNumber":3,"parameterNumberName":"V-component_of_CURRENTS"},"data":[0,0,0,0,0,0,0,0,0,0,0,0,0,0,0,0,0,0,0,0,0,0,0,0,0,0,0,0,0,0,0,0,0,0,0,0,0,0,0,0,0,0,0,0,0,0,0,0,0,0,0,0,0,0,0,0,0,0,-0.1061,-0.1059,0,-0.0922,-0.092,-0.0918,-0.0819,-0.0819,-0.0818,-0.0818,-0.0564,-0.0558,-0.0551,0,0,0,0,0,0,0,0,0,0,0,0,0,-0.1158,-0.1157,-0.1061,-0.1059,-0.1058,-0.0922,-0.092,-0.0918,-0.0819,-0.0819,-0.0818,-0.0817,-0.0566,-0.0558,-0.0551,0,0,0,0,0,0,0,0,0,0,0,0,0,-0.1075,-0.1157,-0.1061,-0.0994,-0.0987,-0.0922,-0.092,-0.0917,-0.0819,-0.0819,-0.0818,-0.0817,-0.0568,-0.0559,-0.055,-0.051,0,0,-0.0521,-0.0517,0,0,0,0,0,0,0,0,-0.108,-0.1072,-0.1005,-0.0999,-0.099,-0.0889,-0.0861,-0.0776,-0.082,-0.0881,-0.0818,-0.0817,-0.0664,-0.0647,-0.0621,-0.0498,-0.0487,-0.052,-0.0515,-0.0511,-0.0508,0,0,0,0,0,0,0,-0.1086,-0.1077,-0.1003,-0.1004,-0.0995,-0.0943,-0.093,-0.0844,-0.0775,-0.0875,-0.0868,-0.0857,-0.0658,-0.063,-0.0614,-0.0483,-0.0521,-0.0512,-0.0507,-0.0503,-0.0301,-0.0302,0,0,0,0,0,0,-0.1113,-0.1083,-0.1008,-0.0999,-0.1037,-0.0942,-0.0928,-0.092,-0.0778,-0.0757,-0.0858,-0.0853,-0.0646,-0.0625,-0.0604,-0.0546,-0.0511,-0.0502,-0.0497,-0.0301,-0.0301,-0.0302,0,0,0,0,0,0,-0.1116,-0.1108,-0.1013,-0.1039,-0.1024,-0.0942,-0.0934,-0.0918,-0.0888,-0.0766,-0.0743,-0.0844,-0.0645,-0.0617,-0.0534,-0.0536,-0.0498,-0.0489,-0.0301,-0.0301,-0.0302,-0.0431,0,0,0,0,0,0,-0.112,-0.111,-0.1112,-0.1042,-0.1024,-0.0984,-0.0934,-0.0916,-0.0884,-0.0876,-0.0747,-0.0722,-0.0642,-0.0549,-0.0525,-0.0522,-0.0482,-0.0301,-0.0301,-0.0301,-0.0426,-0.0435,-0.0443,0,0,0,0,0,-0.1124,-0.1136,-0.1114,-0.1104,-0.103,-0.0985,-0.0971,-0.0908,-0.0884,-0.0877,-0.0792,-0.0726,-0.0534,-0.0541,-0.0513,-0.0508,-0.03,-0.0301,-0.0301,-0.0422,-0.0434,-0.0443,0,0,0,0,0,0,-0.1175,-0.1125,-0.1099,-0.1094,-0.1047,-0.097,-0.0958,-0.0918,-0.0847,-0.0837,-0.0724,-0.0694,-0.0621,-0.0549,-0.056,-0.0452,-0.0408,-0.0403,-0.051,-0.0519,-0.0528,-0.054,-0.0474,0,0,0,0,0,-0.1191,-0.1188,-0.1127,-0.1122,-0.1106,-0.1035,-0.1009,-0.0969,-0.0899,-0.0867,-0.0778,-0.0684,-0.0602,-0.0551,-0.0467,-0.0405,-0.0366,-0.0385,-0.0394,-0.0402,-0.0392,-0.0342,-0.0346,-0.0304,-0.0304,-0.0304,0,0,-0.1208,-0.1181,-0.1177,-0.1133,-0.1092,-0.1072,-0.1016,-0.0988,-0.0963,-0.0849,-0.0788,-0.0709,-0.0594,-0.0528,-0.0489,-0.0466,-0.0403,-0.0402,-0.041,-0.0396,-0.0343,-0.0348,-0.0351,-0.0304,-0.0304,-0.0304,0,0,-0.1243,-0.1221,-0.1227,-0.1199,-0.1152,-0.1107,-0.1106,-0.1034,-0.0995,-0.0932,-0.0849,-0.0777,-0.0646,-0.0572,-0.0515,-0.052,-0.0453,-0.0493,-0.0538,-0.0491,-0.0495,-0.0497,-0.0505,-0.0507,-0.0495,-0.0495,-0.0495,0,-0.1262,-0.1265,-0.1221,-0.1219,-0.1202,-0.113,-0.1129,-0.1081,-0.0989,-0.096,-0.0927,-0.0753,-0.0666,-0.058,-0.0583,-0.0539,-0.0518,-0.0513,-0.0505,-0.0506,-0.0506,-0.0513,-0.0513,-0.0502,-0.0501,-0.05,-0.05,0,-0.1297,-0.1299,-0.1305,-0.1278,-0.1251,-0.1244,-0.1177,-0.1147,-0.1094,-0.1036,-0.0949,-0.0834,-0.0731,-0.0699,-0.0635,-0.0589,-0.058,-0.0529,-0.0487,-0.0518,-0.0524,-0.0522,-0.0511,-0.0508,-0.0506,-0.0505,0,0,-0.1335,-0.1332,-0.1331,-0.1334,-0.1287,-0.1266,-0.1239,-0.1186,-0.1171,-0.1074,-0.1039,-0.0901,-0.0843,-0.0776,-0.0692,-0.0644,-0.0649,-0.0594,-0.0588,-0.0619,-0.0588,-0.0434,-0.0418,-0.0598,-0.0597,-0.0596,-0.0612,0,-0.1372,-0.1401,-0.1377,-0.1386,-0.1394,-0.1336,-0.1317,-0.126,-0.12,-0.1152,-0.1033,-0.0961,-0.0871,-0.0831,-0.0768,-0.0675,-0.064,-0.0652,-0.0536,-0.0534,-0.0405,-0.0407,-0.028,-0.0268,-0.061,-0.061,-0.0609,0,-0.1406,-0.1425,-0.1457,-0.1453,-0.1449,-0.1441,-0.1405,-0.1377,-0.1297,-0.1251,-0.116,-0.1067,-0.0975,-0.0897,-0.0759,-0.0773,-0.0689,-0.0618,-0.0616,-0.0414,-0.0372,-0.0277,-0.025,-0.0046,-0.0605,-0.0606,-0.0606,0,-0.1454,-0.1472,-0.1504,-0.1504,-0.149,-0.149,-0.1471,-0.1411,-0.1396,-0.1316,-0.1301,-0.1164,-0.1112,-0.0974,-0.0811,-0.0796,-0.067,-0.0634,-0.0422,-0.0414,-0.0247,-0.0223,-0.0009,-0.0533,-0.0533,-0.0533,-0.0532,0,-0.1498,-0.1519,-0.1537,-0.1555,-0.1588,-0.1551,-0.1565,-0.1528,-0.1489,-0.1485,-0.1356,-0.1335,-0.1124,-0.1015,-0.0861,-0.0632,-0.071,-0.0422,-0.0385,-0.0292,-0.0272,-0.0036,-0.0001,-0.0533,-0.0533,-0.0533,-0.0533,0,-0.153,-0.1547,-0.159,-0.1608,-0.1614,-0.1634,-0.1635,-0.1649,-0.1605,-0.1603,-0.1585,-0.1476,-0.1339,-0.1119,-0.0918,-0.0697,-0.0354,-0.0398,-0.0322,-0.027,0.017,0.019,0.0412,0.0524,-0.017,-0.0166,-0.0162,0,-0.1545,-0.1578,-0.1634,-0.167,-0.1681,-0.1709,-0.1736,-0.1706,-0.1719,-0.1695,-0.1704,-0.1584,-0.1519,-0.1156,-0.0724,-0.04,-0.0259,-0.005,0.005,0.0236,0.0282,0.0292,0.0369,0.0166,0.0172,0.0177,0.0181,0,-0.1572,-0.1601,-0.1636,-0.1733,-0.1779,-0.1826,-0.1857,-0.1884,-0.1862,-0.1881,-0.1904,-0.1871,-0.1473,-0.1042,-0.052,-0.0271,0.0137,0.0064,0.0248,0.0578,0.0609,0.072,0.0077,0.0224,0.0219,0.0216,0.0214,0.0212,-0.1585,-0.1624,-0.1696,-0.1781,-0.1853,-0.1934,-0.1975,-0.2023,-0.2076,-0.2127,-0.2092,-0.2034,-0.1283,-0.0534,-0.0245,0.0584,0.0438,0.0819,0.0817,0.0802,0.0982,0.0431,0.0649,0.0648,0.0646,0.0645,0.0644,0,-0.1599,-0.165,-0.1739,-0.1851,-0.196,-0.1977,-0.2052,-0.2108,-0.2201,-0.2239,-0.2291,-0.1623,-0.0923,-0.0166,0.1,0.1337,0.1378,0.1471,0.1503,0.1538,0.1063,0.1161,0.1515,0.1515,0.1514,0.1514,0.1514,0.1514,-0.1608,-0.1689,-0.1748,-0.1926,-0.2008,-0.2132,-0.2176,-0.227,-0.2296,-0.2215,-0.1941,-0.1695,-0.0367,0.0947,0.188,0.1959,0.2108,0.2093,0.2125,0.18,0.1738,0.1679,0.1788,0.2266,0.2267,0.2647,0.265,0.2653]}],[{"header":{"parameterUnit":"m.s-1","parameterCategory":2,"la1":30.2991,"la2":30.254,"lo1":-89.0895,"lo2":-89.0444,"dy":0.0017,"dx":0.0017,"nx":28,"ny":28,"refTime":"2024-10-21T09:00:00:Z","depth":"2","parameterNumber":2,"parameterNumberName":"U-component_of_CURRENTS"},"data":[0,0,0,0,0,0,0,0,0,0,0,0,0,0,0,0,0,0,0,0,0,0,0,0,0,0,0,0,0,0,0,0,0,0,0,0,0,0,0,0,0,0,0,0,0,0,0,0,0,0,0,0,0,0,0,0,0,0,-0.2321,-0.232,0,-0.2347,-0.2349,-0.235,-0.2357,-0.2356,-0.2355,-0.2354,-0.2387,-0.2389,-0.2391,0,0,0,0,0,0,0,0,0,0,0,0,0,-0.2294,-0.2296,-0.2321,-0.232,-0.2319,-0.2347,-0.2349,-0.235,-0.2357,-0.2356,-0.2354,-0.2353,-0.2386,-0.2389,-0.2391,0,0,0,0,0,0,0,0,0,0,0,0,0,-0.2322,-0.2296,-0.2321,-0.2318,-0.2318,-0.2347,-0.2349,-0.235,-0.2357,-0.2356,-0.2354,-0.2352,-0.2386,-0.2388,-0.2391,-0.2444,0,0,-0.24,-0.2402,0,0,0,0,0,0,0,0,-0.2321,-0.2325,-0.2319,-0.2318,-0.2317,-0.2337,-0.2351,-0.2378,-0.2358,-0.2354,-0.2353,-0.2351,-0.2365,-0.237,-0.2394,-0.2446,-0.2447,-0.2401,-0.2402,-0.2404,-0.2404,0,0,0,0,0,0,0,-0.2319,-0.2323,-0.2342,-0.2318,-0.2317,-0.2321,-0.2325,-0.2357,-0.2377,-0.2354,-0.2352,-0.2338,-0.2366,-0.2391,-0.2395,-0.2448,-0.24,-0.2403,-0.2405,-0.2406,-0.2606,-0.261,0,0,0,0,0,0,-0.2295,-0.2322,-0.2341,-0.2342,-0.2303,-0.2322,-0.2326,-0.2342,-0.2377,-0.2377,-0.234,-0.2338,-0.2387,-0.2391,-0.2396,-0.2479,-0.2404,-0.2406,-0.2408,-0.2603,-0.2607,-0.2611,0,0,0,0,0,0,-0.2295,-0.2298,-0.234,-0.2322,-0.2326,-0.2323,-0.2341,-0.2343,-0.2383,-0.2364,-0.2366,-0.2377,-0.2386,-0.2392,-0.2444,-0.2479,-0.2408,-0.241,-0.2599,-0.2604,-0.2609,-0.2632,0,0,0,0,0,0,-0.2295,-0.2299,-0.2318,-0.2321,-0.2326,-0.2427,-0.2342,-0.2344,-0.237,-0.237,-0.2397,-0.2397,-0.2385,-0.244,-0.2447,-0.2481,-0.2413,-0.2594,-0.2601,-0.2607,-0.2627,-0.2638,-0.2647,0,0,0,0,0,-0.2294,-0.2327,-0.232,-0.2322,-0.2348,-0.2431,-0.244,-0.2435,-0.2374,-0.2453,-0.2422,-0.2397,-0.2487,-0.2445,-0.2452,-0.2488,-0.2591,-0.2599,-0.2607,-0.2623,-0.2636,-0.2647,0,0,0,0,0,0,-0.234,-0.2329,-0.2322,-0.2354,-0.2418,-0.2429,-0.2468,-0.2454,-0.2493,-0.2473,-0.2436,-0.2439,-0.2495,-0.2509,-0.2462,-0.2575,-0.2539,-0.2549,-0.2549,-0.2561,-0.2571,-0.2548,-0.2415,0,0,0,0,0,-0.2352,-0.2375,-0.2394,-0.2437,-0.2458,-0.2467,-0.2491,-0.2503,-0.2517,-0.2533,-0.253,-0.2531,-0.2538,-0.256,-0.2588,-0.2653,-0.2637,-0.269,-0.27,-0.2708,-0.2701,-0.2689,-0.2694,-0.2637,-0.2637,-0.2637,0,0,-0.2371,-0.2377,-0.2384,-0.2447,-0.2475,-0.2524,-0.2484,-0.2552,-0.2577,-0.253,-0.2568,-0.2569,-0.2564,-0.2622,-0.2652,-0.2636,-0.2728,-0.2718,-0.2724,-0.2712,-0.2697,-0.2702,-0.2706,-0.2643,-0.2642,-0.2641,0,0,-0.2425,-0.2443,-0.2474,-0.2531,-0.2586,-0.2598,-0.2622,-0.2662,-0.2675,-0.2726,-0.2668,-0.2681,-0.2734,-0.2715,-0.2707,-0.2799,-0.2775,-0.284,-0.287,-0.286,-0.2862,-0.2864,-0.2881,-0.2884,-0.285,-0.285,-0.285,0,-0.2438,-0.2487,-0.2513,-0.2569,-0.2597,-0.2626,-0.268,-0.271,-0.276,-0.2758,-0.2756,-0.276,-0.2761,-0.2756,-0.279,-0.2812,-0.2821,-0.2809,-0.2864,-0.2866,-0.2867,-0.2884,-0.2887,-0.2852,-0.2851,-0.2851,-0.2851,0,-0.2506,-0.2559,-0.2596,-0.265,-0.271,-0.2782,-0.2807,-0.2862,-0.2853,-0.2849,-0.2874,-0.2868,-0.2863,-0.288,-0.2857,-0.2879,-0.2889,-0.2864,-0.2813,-0.2873,-0.289,-0.2892,-0.2855,-0.2854,-0.2853,-0.2853,0,0,-0.2453,-0.2605,-0.2607,-0.2659,-0.2755,-0.2804,-0.286,-0.2907,-0.2884,-0.295,-0.2922,-0.2948,-0.2931,-0.2924,-0.2907,-0.2904,-0.2927,-0.2904,-0.2903,-0.2886,-0.2937,-0.2705,-0.2685,-0.2912,-0.2912,-0.2913,-0.2954,0,-0.2486,-0.2603,-0.266,-0.276,-0.2823,-0.2878,-0.2911,-0.2956,-0.2962,-0.2955,-0.2947,-0.2937,-0.2951,-0.2942,-0.2944,-0.2922,-0.2932,-0.292,-0.2913,-0.2914,-0.2667,-0.2678,-0.2499,-0.2498,-0.2956,-0.2956,-0.2957,0,-0.2488,-0.2577,-0.2685,-0.2807,-0.2828,-0.2878,-0.2912,-0.2959,-0.2961,-0.2965,-0.2967,-0.2949,-0.2964,-0.2951,-0.2967,-0.2967,-0.2966,-0.2951,-0.2951,-0.2716,-0.2682,-0.2512,-0.2485,-0.296,-0.296,-0.296,-0.2959,0,-0.2413,-0.2568,-0.2653,-0.2701,-0.2839,-0.2872,-0.2929,-0.2951,-0.2953,-0.2971,-0.2939,-0.2971,-0.296,-0.2981,-0.2972,-0.2986,-0.2959,-0.2967,-0.2763,-0.275,-0.258,-0.2548,-0.2965,-0.2965,-0.2965,-0.2965,-0.2965,0,-0.2397,-0.2453,-0.2626,-0.2671,-0.2735,-0.2841,-0.2861,-0.2909,-0.2921,-0.2868,-0.2935,-0.2872,-0.2965,-0.2948,-0.2969,-0.2855,-0.2968,-0.2752,-0.2722,-0.2588,-0.2557,-0.294,-0.2936,-0.2966,-0.2966,-0.2966,-0.2965,0,-0.2296,-0.2415,-0.2516,-0.2671,-0.271,-0.2752,-0.2842,-0.2821,-0.2865,-0.2793,-0.2803,-0.2826,-0.2801,-0.2848,-0.2865,-0.2801,-0.2751,-0.2687,-0.2529,-0.2474,-0.257,-0.2569,-0.2475,-0.2467,-0.246,-0.2454,-0.2449,0,-0.2262,-0.2309,-0.2484,-0.2529,-0.26,-0.2681,-0.2696,-0.2786,-0.2727,-0.2714,-0.2624,-0.2635,-0.2527,-0.2482,-0.2442,-0.2414,-0.256,-0.2197,-0.2144,-0.2527,-0.2511,-0.252,-0.2528,-0.1988,-0.198,-0.1973,-0.1968,0,-0.2176,-0.2233,-0.2314,-0.2427,-0.2473,-0.2505,-0.2522,-0.2442,-0.2467,-0.2431,-0.2309,-0.2253,-0.2185,-0.2044,-0.2,-0.1965,-0.2185,-0.2044,-0.2495,-0.2088,-0.2055,-0.2043,-0.207,-0.1907,-0.1913,-0.1918,-0.1921,-0.1923,-0.2079,-0.2104,-0.2209,-0.2291,-0.2348,-0.2262,-0.218,-0.2149,-0.2051,-0.1908,-0.1953,-0.183,-0.1821,-0.1615,-0.1559,-0.1558,-0.1701,-0.1658,-0.1687,-0.1721,-0.1604,-0.1553,-0.1296,-0.1298,-0.13,-0.1302,-0.1304,0,-0.1948,-0.1989,-0.2063,-0.2113,-0.2092,-0.2189,-0.2012,-0.187,-0.1681,-0.1629,-0.1555,-0.1327,-0.1192,-0.1247,-0.1127,-0.1068,-0.1153,-0.1041,-0.1183,-0.1239,-0.1291,-0.1161,-0.0731,-0.0729,-0.0728,-0.0727,0,0,-0.1876,-0.188,-0.1924,-0.1854,-0.1888,-0.1713,-0.1567,-0.1405,-0.1277,-0.1133,-0.109,-0.1109,-0.1124,-0.0903,-0.0862,-0.0787,-0.1015,-0.0744,-0.1194,-0.1413,-0.1464,-0.1621,-0.1477,0,0,0,0,0]},{"header":{"parameterUnit":"m.s-1","parameterCategory":2,"la1":30.2991,"la2":30.254,"lo1":-89.0895,"lo2":-89.0444,"dy":0.0017,"dx":0.0017,"nx":28,"ny":28,"refTime":"2024-10-21T09:00:00:Z","depth":"2","parameterNumber":3,"parameterNumberName":"V-component_of_CURRENTS"},"data":[0,0,0,0,0,0,0,0,0,0,0,0,0,0,0,0,0,0,0,0,0,0,0,0,0,0,0,0,0,0,0,0,0,0,0,0,0,0,0,0,0,0,0,0,0,0,0,0,0,0,0,0,0,0,0,0,0,0,0.0191,0.019,0,0.0231,0.0232,0.0233,0.0302,0.0303,0.0303,0.0304,0.0461,0.0464,0.0468,0,0,0,0,0,0,0,0,0,0,0,0,0,0.0277,0.0275,0.0191,0.019,0.019,0.023,0.0232,0.0233,0.0302,0.0303,0.0303,0.0304,0.0459,0.0464,0.0468,0,0,0,0,0,0,0,0,0,0,0,0,0,0.0278,0.0274,0.0191,0.0223,0.0225,0.023,0.0232,0.0234,0.0302,0.0303,0.0304,0.0304,0.0458,0.0463,0.0469,0.0489,0,0,0.0486,0.0489,0,0,0,0,0,0,0,0,0.0278,0.0276,0.0218,0.022,0.0223,0.0254,0.0319,0.0322,0.0302,0.0283,0.0304,0.0305,0.0396,0.0407,0.0424,0.0497,0.0504,0.0487,0.049,0.0492,0.0494,0,0,0,0,0,0,0,0.0278,0.0276,0.0216,0.0218,0.022,0.0269,0.027,0.0321,0.0344,0.0284,0.0287,0.0277,0.04,0.0418,0.0428,0.0506,0.0486,0.0491,0.0495,0.0497,0.0733,0.0736,0,0,0,0,0,0,0.0248,0.0274,0.0214,0.0216,0.0243,0.0266,0.0268,0.0251,0.0341,0.0352,0.0276,0.028,0.0408,0.0422,0.0434,0.0531,0.0492,0.0498,0.0501,0.073,0.0733,0.0737,0,0,0,0,0,0,0.025,0.0242,0.0213,0.024,0.0238,0.0262,0.0244,0.0251,0.0285,0.0332,0.0347,0.0302,0.041,0.0426,0.0495,0.0535,0.05,0.0505,0.0727,0.0731,0.0735,0.0681,0,0,0,0,0,0,0.0252,0.0242,0.0233,0.0237,0.0235,0.0263,0.0242,0.0251,0.0272,0.0278,0.0359,0.0373,0.0411,0.0486,0.05,0.0542,0.051,0.0723,0.0729,0.0734,0.0679,0.0683,0.0686,0,0,0,0,0,0.0255,0.0227,0.0233,0.0226,0.0217,0.0264,0.0272,0.0296,0.0272,0.0323,0.0346,0.0372,0.0533,0.0492,0.0508,0.0552,0.072,0.0727,0.0733,0.0677,0.0682,0.0686,0,0,0,0,0,0,0.027,0.0231,0.0237,0.0203,0.0255,0.0274,0.0285,0.0299,0.0353,0.0346,0.0386,0.0405,0.0486,0.0533,0.0487,0.0645,0.0641,0.0651,0.0593,0.0598,0.0601,0.0566,0.0514,0,0,0,0,0,0.0262,0.0229,0.0244,0.0229,0.0239,0.0265,0.0281,0.0309,0.034,0.0364,0.0411,0.0467,0.0524,0.0567,0.0634,0.0704,0.0719,0.0757,0.076,0.0762,0.0751,0.08,0.0805,0.0758,0.0758,0.0758,0,0,0.026,0.0236,0.0218,0.0231,0.025,0.0269,0.028,0.0313,0.034,0.0372,0.0422,0.0477,0.0546,0.0627,0.0671,0.067,0.0787,0.0771,0.0771,0.0758,0.0807,0.0811,0.0814,0.0762,0.0762,0.0761,0,0,0.0224,0.0223,0.018,0.0222,0.0251,0.0283,0.0294,0.0336,0.0373,0.0428,0.0454,0.0526,0.0616,0.0676,0.0711,0.0779,0.0798,0.0823,0.0812,0.086,0.0863,0.0865,0.0879,0.0883,0.083,0.0829,0.0829,0,0.0223,0.0169,0.0195,0.0186,0.0206,0.0281,0.0285,0.0338,0.0408,0.0432,0.0449,0.0569,0.0635,0.0709,0.074,0.0783,0.0796,0.0775,0.0857,0.086,0.0863,0.0877,0.0882,0.0828,0.0828,0.0828,0.0828,0,0.0162,0.0141,0.013,0.0131,0.0185,0.0209,0.0282,0.0344,0.0381,0.0426,0.0516,0.06,0.0671,0.0723,0.0744,0.082,0.0816,0.0842,0.0825,0.0863,0.0878,0.0883,0.0825,0.0826,0.0826,0.0827,0,0,0.0088,0.0077,0.0072,0.0075,0.0157,0.0191,0.0254,0.0329,0.034,0.0453,0.0466,0.0604,0.0649,0.0694,0.0758,0.0809,0.0848,0.083,0.0833,0.0803,0.0922,0.087,0.0871,0.0876,0.0877,0.0878,0.0915,0,0.0032,-0.0033,0.0007,0.0017,0.0004,0.0122,0.017,0.0265,0.0337,0.0384,0.0499,0.0552,0.064,0.0665,0.0738,0.0819,0.0863,0.0833,0.0924,0.0926,0.0843,0.0877,0.0836,0.0862,0.0921,0.0922,0.0923,0,-0.0044,-0.0081,-0.0126,-0.0071,-0.0061,-0.0029,0.0063,0.0129,0.0238,0.0291,0.0384,0.0464,0.0582,0.0627,0.0796,0.0768,0.0838,0.0898,0.0902,0.0872,0.0886,0.0842,0.087,0.0933,0.0932,0.0931,0.0931,0,-0.0144,-0.0152,-0.0202,-0.0183,-0.0117,-0.0099,-0.0037,0.0076,0.0125,0.0223,0.0235,0.0402,0.0459,0.0597,0.0765,0.0773,0.0908,0.094,0.0957,0.0953,0.0946,0.0939,0.103,0.103,0.103,0.103,0.103,0,-0.0226,-0.0252,-0.0269,-0.0293,-0.0312,-0.0207,-0.019,-0.0109,-0.0018,0.0012,0.0168,0.0208,0.0451,0.0572,0.0722,0.0858,0.0891,0.0947,0.0964,0.0927,0.0918,0.1009,0.1006,0.1031,0.1031,0.1031,0.103,0,-0.0323,-0.0339,-0.0391,-0.0381,-0.0374,-0.0385,-0.0293,-0.0269,-0.018,-0.0152,-0.0125,0.0068,0.0245,0.0465,0.0685,0.0782,0.0928,0.096,0.0883,0.0889,0.0943,0.0938,0.0976,0.0974,0.0973,0.0972,0.0971,0,-0.0374,-0.0437,-0.0489,-0.0521,-0.0527,-0.0519,-0.0498,-0.0374,-0.0347,-0.0237,-0.0243,-0.0068,0.0077,0.0376,0.0605,0.0839,0.0895,0.0879,0.0897,0.0927,0.094,0.0937,0.0933,0.0871,0.087,0.0868,0.0867,0,-0.0468,-0.0513,-0.0566,-0.0663,-0.0681,-0.0666,-0.0642,-0.0646,-0.051,-0.0479,-0.0389,-0.0265,0.0028,0.0306,0.0587,0.0717,0.0847,0.0854,0.0932,0.0877,0.0828,0.0841,0.0841,0.0856,0.0857,0.0858,0.0858,0.0859,-0.0529,-0.0609,-0.0704,-0.0775,-0.08,-0.0809,-0.0798,-0.0764,-0.0721,-0.0623,-0.0496,-0.028,-0.0023,0.0406,0.0582,0.0745,0.0772,0.0818,0.0823,0.0829,0.0796,0.0746,0.0751,0.0751,0.0752,0.0752,0.0753,0,-0.0589,-0.069,-0.0787,-0.0858,-0.089,-0.0882,-0.0872,-0.0837,-0.0811,-0.0656,-0.0512,-0.0228,0.0075,0.0355,0.0591,0.0712,0.0735,0.0729,0.0752,0.0761,0.077,0.0736,0.0674,0.0675,0.0675,0.0675,0,0,-0.0624,-0.0753,-0.082,-0.0915,-0.0955,-0.095,-0.0949,-0.0914,-0.0796,-0.0653,-0.0455,-0.0168,0.0134,0.0285,0.0457,0.0579,0.0633,0.0579,0.0625,0.0639,0.0647,0.0801,0.0755,0,0,0,0,0]}],[{"header":{"parameterUnit":"m.s-1","parameterCategory":2,"la1":30.2991,"la2":30.254,"lo1":-89.0895,"lo2":-89.0444,"dy":0.0017,"dx":0.0017,"nx":28,"ny":28,"refTime":"2024-10-21T09:00:00:Z","depth":"4","parameterNumber":2,"parameterNumberName":"U-component_of_CURRENTS"},"data":[0,0,0,0,0,0,0,0,0,0,0,0,0,0,0,0,0,0,0,0,0,0,0,0,0,0,0,0,0,0,0,0,0,0,0,0,0,0,0,0,0,0,0,0,0,0,0,0,0,0,0,0,0,0,0,0,0,0,-0.1109,-0.111,0,-0.1194,-0.1195,-0.1196,-0.1249,-0.1249,-0.1249,-0.1249,-0.1318,-0.132,-0.1321,0,0,0,0,0,0,0,0,0,0,0,0,0,-0.1019,-0.102,-0.1109,-0.111,-0.1111,-0.1194,-0.1195,-0.1196,-0.1249,-0.1249,-0.1249,-0.1249,-0.1318,-0.132,-0.1322,0,0,0,0,0,0,0,0,0,0,0,0,0,-0.1077,-0.102,-0.1109,-0.1146,-0.115,-0.1194,-0.1195,-0.1197,-0.1248,-0.1249,-0.1249,-0.1249,-0.1317,-0.1319,-0.1322,-0.1332,0,0,-0.133,-0.1331,0,0,0,0,0,0,0,0,-0.1074,-0.1081,-0.114,-0.1144,-0.1148,-0.121,-0.1189,-0.1241,-0.1248,-0.1212,-0.1249,-0.1249,-0.128,-0.1285,-0.1302,-0.1336,-0.1339,-0.133,-0.1331,-0.1332,-0.1333,0,0,0,0,0,0,0,-0.107,-0.1077,-0.1144,-0.1141,-0.1146,-0.1168,-0.1176,-0.1199,-0.1244,-0.1216,-0.1219,-0.1227,-0.1282,-0.13,-0.1304,-0.134,-0.133,-0.1332,-0.1334,-0.1335,-0.1449,-0.145,0,0,0,0,0,0,-0.1055,-0.1073,-0.1141,-0.1146,-0.111,-0.1169,-0.1178,-0.1191,-0.1244,-0.1253,-0.1226,-0.1229,-0.1295,-0.1301,-0.1307,-0.1374,-0.1332,-0.1335,-0.1336,-0.1447,-0.1449,-0.1451,0,0,0,0,0,0,-0.1053,-0.1061,-0.1138,-0.1111,-0.1122,-0.117,-0.1184,-0.1192,-0.1228,-0.1253,-0.1261,-0.1254,-0.1296,-0.1303,-0.1353,-0.1374,-0.1336,-0.1338,-0.1445,-0.1448,-0.145,-0.1474,0,0,0,0,0,0,-0.105,-0.106,-0.1074,-0.111,-0.1123,-0.1172,-0.1184,-0.1194,-0.123,-0.1235,-0.1279,-0.1285,-0.1297,-0.1349,-0.1355,-0.1377,-0.134,-0.1443,-0.1446,-0.1449,-0.1471,-0.1476,-0.1481,0,0,0,0,0,-0.1047,-0.1062,-0.1074,-0.1083,-0.1137,-0.1172,-0.1182,-0.1217,-0.1231,-0.125,-0.1288,-0.1284,-0.1371,-0.1353,-0.136,-0.1383,-0.1442,-0.1445,-0.1449,-0.1469,-0.1475,-0.1481,0,0,0,0,0,0,-0.102,-0.1069,-0.1084,-0.111,-0.1142,-0.1181,-0.1206,-0.1226,-0.1272,-0.1285,-0.1305,-0.1315,-0.1368,-0.1374,-0.1353,-0.1425,-0.1405,-0.141,-0.1418,-0.1424,-0.1429,-0.1423,-0.1342,0,0,0,0,0,-0.1022,-0.1047,-0.1091,-0.1107,-0.1133,-0.1172,-0.1195,-0.122,-0.1258,-0.128,-0.1311,-0.1347,-0.1385,-0.1403,-0.1437,-0.1473,-0.1465,-0.1493,-0.1498,-0.1502,-0.1503,-0.1519,-0.1525,-0.1462,-0.1462,-0.1462,0,0,-0.1011,-0.1041,-0.1054,-0.1103,-0.1137,-0.1173,-0.1188,-0.123,-0.1259,-0.1279,-0.1337,-0.137,-0.1402,-0.145,-0.1473,-0.1458,-0.1515,-0.1506,-0.151,-0.1509,-0.1523,-0.1529,-0.1534,-0.1464,-0.1464,-0.1463,0,0,-0.1,-0.1037,-0.1062,-0.1096,-0.115,-0.1181,-0.1195,-0.1252,-0.1283,-0.1334,-0.1364,-0.1412,-0.1461,-0.1492,-0.1511,-0.1563,-0.1546,-0.1575,-0.159,-0.1606,-0.1611,-0.1615,-0.16,-0.1603,-0.1572,-0.1572,-0.1572,0,-0.0988,-0.1024,-0.1071,-0.1106,-0.1134,-0.1186,-0.1218,-0.1258,-0.1319,-0.1353,-0.1355,-0.1455,-0.1479,-0.1541,-0.1562,-0.1573,-0.157,-0.1562,-0.1611,-0.1615,-0.1619,-0.1602,-0.1605,-0.1573,-0.1573,-0.1573,-0.1573,0,-0.0992,-0.1034,-0.1053,-0.1116,-0.1154,-0.1189,-0.125,-0.1298,-0.134,-0.1379,-0.1456,-0.1495,-0.1552,-0.1568,-0.1581,-0.1632,-0.1615,-0.1618,-0.1589,-0.1626,-0.1607,-0.1609,-0.1575,-0.1575,-0.1574,-0.1574,0,0,-0.0928,-0.1038,-0.1042,-0.1083,-0.1165,-0.1194,-0.126,-0.1332,-0.1384,-0.1439,-0.1496,-0.1564,-0.1594,-0.1618,-0.1645,-0.1656,-0.1676,-0.1649,-0.1649,-0.1622,-0.1691,-0.1597,-0.1589,-0.1688,-0.1689,-0.169,-0.1661,0,-0.0919,-0.0976,-0.1039,-0.1098,-0.1141,-0.122,-0.1277,-0.135,-0.1413,-0.1484,-0.1537,-0.1602,-0.161,-0.1645,-0.1662,-0.1686,-0.1686,-0.1682,-0.1669,-0.1668,-0.1571,-0.1591,-0.1693,-0.1662,-0.1663,-0.1663,-0.1663,0,-0.0901,-0.0947,-0.1,-0.1112,-0.114,-0.1186,-0.1292,-0.1349,-0.1462,-0.1516,-0.1589,-0.1638,-0.1694,-0.1682,-0.1718,-0.1718,-0.1706,-0.1703,-0.1702,-0.1607,-0.1578,-0.1623,-0.1667,-0.1667,-0.1666,-0.1666,-0.1666,0,-0.0819,-0.0923,-0.0963,-0.0995,-0.1122,-0.1172,-0.1241,-0.1358,-0.1421,-0.1536,-0.159,-0.1667,-0.1706,-0.1717,-0.1727,-0.1727,-0.1739,-0.1736,-0.1633,-0.1625,-0.1706,-0.1702,-0.1741,-0.1741,-0.1741,-0.1741,-0.1741,0,-0.0778,-0.0813,-0.0935,-0.0954,-0.1017,-0.1127,-0.1209,-0.1294,-0.1422,-0.1489,-0.1597,-0.1645,-0.1718,-0.1742,-0.1734,-0.1686,-0.1744,-0.1631,-0.1615,-0.1716,-0.1714,-0.1706,-0.1703,-0.174,-0.174,-0.174,-0.1741,0,-0.0685,-0.0759,-0.0813,-0.0941,-0.0981,-0.1021,-0.1176,-0.1239,-0.1374,-0.1458,-0.1496,-0.1633,-0.166,-0.1704,-0.1719,-0.168,-0.1652,-0.1615,-0.1706,-0.1696,-0.152,-0.1519,-0.1491,-0.1487,-0.1484,-0.1482,-0.148,0,-0.0648,-0.0665,-0.0771,-0.0796,-0.0857,-0.0946,-0.1012,-0.118,-0.1248,-0.1428,-0.145,-0.1543,-0.1607,-0.155,-0.161,-0.1581,-0.1567,-0.1543,-0.1543,-0.151,-0.1497,-0.15,-0.1502,-0.1475,-0.1474,-0.1474,-0.1473,0,-0.0572,-0.0605,-0.064,-0.0687,-0.0749,-0.0835,-0.0944,-0.0992,-0.1176,-0.1297,-0.1369,-0.1414,-0.1445,-0.1472,-0.1467,-0.1448,-0.156,-0.1512,-0.1517,-0.1517,-0.149,-0.1481,-0.1487,-0.1463,-0.1464,-0.1465,-0.1466,0,-0.0507,-0.049,-0.0529,-0.0567,-0.064,-0.0715,-0.0799,-0.0899,-0.0994,-0.1202,-0.1206,-0.1314,-0.1411,-0.1401,-0.1393,-0.1376,-0.1358,-0.1321,-0.1337,-0.1349,-0.1322,-0.1268,-0.1152,0,0,0,0,0,-0.0447,-0.04,-0.0415,-0.0461,-0.0543,-0.0598,-0.0748,-0.0849,-0.1014,-0.1021,-0.1124,-0.1148,-0.119,-0.1251,-0.1202,-0.1327,-0.1356,-0.1267,-0.132,-0.1406,-0.1418,-0.1403,0,0,0,0,0,0,-0.0391,-0.0372,-0.0362,-0.0377,-0.0402,-0.05,-0.0599,-0.0727,-0.0756,-0.0914,-0.0934,-0.1051,-0.1094,-0.1167,-0.1158,-0.1176,-0.1184,-0.1333,-0.133,-0.1399,-0.141,-0.142,-0.1408,0,0,0,0,0]},{"header":{"parameterUnit":"m.s-1","parameterCategory":2,"la1":30.2991,"la2":30.254,"lo1":-89.0895,"lo2":-89.0444,"dy":0.0017,"dx":0.0017,"nx":28,"ny":28,"refTime":"2024-10-21T09:00:00:Z","depth":"4","parameterNumber":3,"parameterNumberName":"V-component_of_CURRENTS"},"data":[0,0,0,0,0,0,0,0,0,0,0,0,0,0,0,0,0,0,0,0,0,0,0,0,0,0,0,0,0,0,0,0,0,0,0,0,0,0,0,0,0,0,0,0,0,0,0,0,0,0,0,0,0,0,0,0,0,0,-0.0133,-0.0133,0,-0.0125,-0.0124,-0.0124,-0.0083,-0.0082,-0.0081,-0.0081,0.0,0.0001,0.0003,0,0,0,0,0,0,0,0,0,0,0,0,0,-0.0082,-0.0083,-0.0133,-0.0133,-0.0133,-0.0125,-0.0124,-0.0124,-0.0083,-0.0082,-0.0081,-0.008,-0.0,0.0001,0.0003,0,0,0,0,0,0,0,0,0,0,0,0,0,-0.0091,-0.0083,-0.0133,-0.0112,-0.011,-0.0125,-0.0124,-0.0124,-0.0084,-0.0082,-0.0081,-0.008,-0.0001,0.0001,0.0003,-0.0013,0,0,0.0009,0.001,0,0,0,0,0,0,0,0,-0.0091,-0.0093,-0.0115,-0.0114,-0.0111,-0.0104,-0.0077,-0.0084,-0.0084,-0.0093,-0.0081,-0.0079,-0.0029,-0.0025,-0.0027,-0.0009,-0.0006,0.0009,0.001,0.0011,0.0011,0,0,0,0,0,0,0,-0.009,-0.0093,-0.0129,-0.0115,-0.0113,-0.0092,-0.0092,-0.0078,-0.0068,-0.0092,-0.009,-0.009,-0.0027,-0.0029,-0.0025,-0.0005,0.0009,0.0011,0.0012,0.0012,0.0029,0.0029,0,0,0,0,0,0,-0.0096,-0.0093,-0.013,-0.0129,-0.0098,-0.0094,-0.0094,-0.0107,-0.0069,-0.0063,-0.0091,-0.0088,-0.0033,-0.0027,-0.0021,-0.0014,0.0011,0.0013,0.0014,0.003,0.0029,0.0029,0,0,0,0,0,0,-0.0095,-0.01,-0.013,-0.011,-0.0112,-0.0097,-0.0112,-0.0108,-0.0102,-0.0069,-0.0061,-0.0087,-0.0032,-0.0024,-0.0002,-0.0011,0.0014,0.0015,0.0031,0.003,0.0029,-0.0015,0,0,0,0,0,0,-0.0094,-0.01,-0.0112,-0.0111,-0.0114,-0.0148,-0.0113,-0.0109,-0.0105,-0.01,-0.0064,-0.0055,-0.003,-0.0005,-0.0,-0.0008,0.0017,0.0032,0.003,0.0029,-0.0012,-0.0017,-0.0021,0,0,0,0,0,-0.0092,-0.0121,-0.0113,-0.0117,-0.0131,-0.0149,-0.0149,-0.0131,-0.0106,-0.0117,-0.0079,-0.0056,-0.001,-0.0004,0.0002,-0.0006,0.0032,0.0031,0.0029,-0.001,-0.0016,-0.0021,0,0,0,0,0,0,-0.0106,-0.012,-0.011,-0.0141,-0.0146,-0.0142,-0.015,-0.0134,-0.0116,-0.0104,-0.0062,-0.0052,-0.0038,-0.0019,-0.0014,-0.0006,0.0013,0.0013,-0.0019,-0.0024,-0.0028,-0.003,0.0018,0,0,0,0,0,-0.0116,-0.014,-0.0143,-0.0168,-0.017,-0.0158,-0.016,-0.0151,-0.0136,-0.0126,-0.01,-0.007,-0.0044,-0.003,-0.0012,-0.0008,0.004,-0.0011,-0.0015,-0.0019,-0.0017,0.0053,0.0056,0.0023,0.0023,0.0023,0,0,-0.0129,-0.0138,-0.0151,-0.0172,-0.017,-0.0191,-0.0156,-0.0168,-0.0176,-0.012,-0.0119,-0.0085,-0.0046,-0.0039,-0.0031,-0.0021,0.0014,-0.0021,-0.0024,-0.0021,0.0052,0.0055,0.0059,0.0022,0.0022,0.0023,0,0,-0.0169,-0.0173,-0.0204,-0.0212,-0.0218,-0.0216,-0.022,-0.0218,-0.0205,-0.0205,-0.0157,-0.0122,-0.0107,-0.0068,-0.0047,-0.0066,-0.0011,-0.0071,-0.0092,-0.0024,-0.002,-0.0016,0.0049,0.0059,-0.0072,-0.0073,-0.0073,0,-0.0178,-0.022,-0.0216,-0.0243,-0.0252,-0.0229,-0.0259,-0.025,-0.0241,-0.0222,-0.0213,-0.015,-0.0117,-0.0075,-0.0084,-0.0074,-0.0028,-0.0073,-0.0027,-0.0022,-0.0017,0.0049,0.006,-0.0075,-0.0075,-0.0074,-0.0074,0,-0.0239,-0.0268,-0.0286,-0.0313,-0.0325,-0.0348,-0.0337,-0.0335,-0.0314,-0.0293,-0.0254,-0.0204,-0.0158,-0.015,-0.0123,-0.0077,-0.0054,-0.0039,-0.001,-0.0016,0.0053,0.0066,-0.0078,-0.0077,-0.0077,-0.0076,0,0,-0.0264,-0.0319,-0.0323,-0.0345,-0.0362,-0.0379,-0.0386,-0.038,-0.0364,-0.0341,-0.0309,-0.0261,-0.0214,-0.0187,-0.014,-0.0087,-0.0014,-0.0057,-0.0052,0.0014,0.0139,0.0099,0.011,0.0011,0.0013,0.0014,0.0174,0,-0.0306,-0.0378,-0.039,-0.0446,-0.0477,-0.0458,-0.0469,-0.0453,-0.0419,-0.0383,-0.0306,-0.0267,-0.0234,-0.0205,-0.0143,-0.0042,0.0018,-0.0058,0.0129,0.0135,0.0106,0.0123,0.002,0.0184,0.0187,0.0189,0.0191,0,-0.0352,-0.0395,-0.0467,-0.0508,-0.0517,-0.0547,-0.0537,-0.0541,-0.0475,-0.044,-0.037,-0.0307,-0.0213,-0.0193,-0.0013,-0.0063,0.003,0.0104,0.0113,0.0101,0.0119,0.0191,0.0216,0.0214,0.0212,0.021,0.0209,0,-0.0372,-0.044,-0.0502,-0.0519,-0.0565,-0.0581,-0.0593,-0.0556,-0.0544,-0.0464,-0.043,-0.0314,-0.024,-0.0115,0.0038,0.0019,0.0237,0.0237,0.0292,0.0291,0.03,0.0295,0.0361,0.036,0.036,0.036,0.0359,0,-0.0406,-0.0447,-0.052,-0.0553,-0.0607,-0.062,-0.0642,-0.0623,-0.0582,-0.0552,-0.0457,-0.0389,-0.0218,-0.0076,0.0049,0.0216,0.0257,0.0296,0.0331,0.0276,0.0266,0.0311,0.0303,0.0366,0.0364,0.0363,0.0362,0,-0.0409,-0.0462,-0.0533,-0.0603,-0.0624,-0.0659,-0.0691,-0.069,-0.0648,-0.0597,-0.0573,-0.0422,-0.0238,-0.0066,0.0161,0.0231,0.0389,0.0437,0.0375,0.0402,0.0396,0.0384,0.0513,0.0513,0.0513,0.0513,0.0513,0,-0.0416,-0.046,-0.0566,-0.061,-0.0646,-0.0696,-0.0724,-0.072,-0.0708,-0.0609,-0.0576,-0.0403,-0.0285,0.0027,0.0184,0.0419,0.0435,0.0505,0.0434,0.0392,0.0413,0.0401,0.0389,0.0513,0.0513,0.0513,0.0513,0,-0.0418,-0.0466,-0.0527,-0.0619,-0.0676,-0.073,-0.0764,-0.0763,-0.0733,-0.07,-0.0549,-0.0395,-0.0185,0.0031,0.0214,0.0375,0.0448,0.0505,0.0505,0.0439,0.0393,0.0411,0.04,0.0512,0.0512,0.0512,0.0513,0,-0.0407,-0.0449,-0.0534,-0.0601,-0.0688,-0.0736,-0.0761,-0.0737,-0.0724,-0.0625,-0.057,-0.0349,-0.022,0.0011,0.0182,0.033,0.0346,0.0361,0.0369,0.0371,0.0259,0.0176,0.0267,0,0,0,0,0,-0.0382,-0.0419,-0.0499,-0.059,-0.0682,-0.072,-0.077,-0.0782,-0.0761,-0.0658,-0.0616,-0.0421,-0.0158,-0.0031,0.0113,0.0154,0.0352,0.032,0.0368,0.0512,0.0512,0.0398,0,0,0,0,0,0,-0.0371,-0.0434,-0.0479,-0.0562,-0.0619,-0.0704,-0.0739,-0.0731,-0.0673,-0.0626,-0.047,-0.0407,-0.0137,-0.0217,0.0121,0.0163,0.0201,0.0446,0.0447,0.0512,0.0512,0.0512,0.0395,0,0,0,0,0]}]]